User: anonymous   Login
Location: Unspecified
(0.0000°N, 0.0000°E)
Time: 03:31:27
(UTC+00:00)
Language:

COSMOS 2471 (GLONASS) - Orbit

View from above orbital plane
View from above orbital plane
View from above satellite
View from above satellite

Ground track
Ground track

The orbit data is extracted from the following two-line orbital elements,

1 37372U 11009A   17349.59696772 -.00000063  00000-0  00000+0 0  9997
2 37372  65.4895  58.5053 0009027 230.7624 259.5565  2.13107679 52919
Epoch (UTC): 15 December 2017 14:19:38
Eccentricity: 0.0009027
inclination: 65.4895°
perigee height: 19106 km
apogee height: 19152 km
right ascension of ascending node: 58.5053°
argument of perigee: 230.7624°
revolutions per day: 2.13107679
mean anomaly at epoch: 259.5565°
orbit number at epoch: 5291

The dashed part of the orbit path shows where the satellite is in the earth's shadow,  

DLR